Location: *
(45.0500°N, 12.0500°E)
Time: 08:58:19
(UTC+00:00)

Daily predictions for brighter satellites

Satellite Brightness Start Highest point End
(mag) Time Altitude Azimuth Time Altitude Azimuth Time Altitude Azimuth
ATLAS 2AS CENTAUR R/B 3.0 18:09:35 10° NW 18:17:14 69° NE 18:24:11 10° SE
SeaSat 1 2.5 18:14:50 10° NNE 18:19:48 85° ESE 18:24:44 10° SSW
STARLINK-1234 3.8 18:17:26 10° NW 18:20:23 37° NNE 18:23:18 10° E
ATLAS 5 CENTAUR R/B 1.9 18:16:52 10° S 18:20:42 40° ESE 18:24:57 10° NE
STARLINK-1209 3.8 18:17:53 10° NW 18:20:51 38° NNE 18:23:48 10° E
STARLINK-1233 4.2 18:18:20 10° NW 18:21:12 31° NNE 18:24:04 10° E
STARLINK-1212 4.1 18:18:48 10° NW 18:21:39 31° NNE 18:24:31 10° E
STARLINK-1105 4.1 18:19:14 10° NW 18:22:06 32° NNE 18:24:58 10° E
STARLINK-1206 4.1 18:19:43 10° NW 18:22:33 31° NNE 18:25:25 10° E
STARLINK-1247 4.1 18:20:10 10° NW 18:23:02 32° NNE 18:25:53 10° E
Cosmos 1603 4.4 18:17:39 10° SW 18:23:11 62° WNW 18:28:46 10° NNE
H-2A R/B 2.1 18:18:18 10° SSE 18:23:23 59° ENE 18:28:21 10° N
STARLINK-1227 4.1 18:20:34 10° NW 18:23:26 32° NNE 18:26:20 10° E
STARLINK-1218 4.1 18:21:04 10° NW 18:23:56 32° NNE 18:26:47 10° E
STARLINK-1226 4.1 18:21:30 10° NW 18:24:22 32° NNE 18:27:15 10° E
STARLINK-1254 4.1 18:21:55 10° NW 18:24:49 32° NNE 18:27:43 10° E
COSMOS 2455 3.5 18:19:14 10° NNW 18:24:53 40° NE 18:30:30 10° ESE
STARLINK-1215 4.1 18:22:25 10° NW 18:25:17 32° NNE 18:28:09 10° E
STARLINK-1231 4.1 18:22:52 10° NW 18:25:45 33° NNE 18:28:37 10° E
HJ-1C 3.8 18:22:49 10° S 18:26:09 69° W 18:29:32 10° NNW
STARLINK-1232 4.0 18:23:46 10° NW 18:26:39 33° NNE 18:29:32 10° E
STARLINK-1217 4.0 18:24:13 10° NW 18:27:06 33° NNE 18:29:59 10° E
STARLINK-1208 4.0 18:24:37 10° NW 18:27:33 34° NNE 18:30:27 10° E
Abrixas rocket 2.4 18:24:41 10° WNW 18:27:36 52° NNE 18:30:31 10° E
STARLINK-1229 4.0 18:25:06 10° NW 18:28:00 33° NNE 18:30:53 10° E
STARLINK-1271 4.0 18:25:34 10° NW 18:28:28 34° NNE 18:31:21 10° E
STARLINK-1270 4.0 18:26:01 10° NW 18:28:55 34° NNE 18:31:48 10° E
STARLINK-1154 4.0 18:26:29 10° NW 18:29:23 34° NNE 18:32:16 10° E
STARLINK-1197 4.0 18:27:22 10° NW 18:30:16 34° NNE 18:33:09 10° E
Cosmos 1140 Rocket 3.9 18:25:36 10° S 18:30:22 39° ESE 18:35:10 10° NE
STARLINK-1189 4.0 18:27:48 10° NW 18:30:43 35° NNE 18:33:34 10° E
STARLINK-1198 3.9 18:28:16 10° NW 18:31:11 35° NNE 18:34:01 10° E
STARLINK-1188 3.9 18:28:42 10° NW 18:31:37 35° NNE 18:34:26 11° E
STARLINK-1235 3.7 18:29:19 10° NW 18:32:21 42° NNE 18:35:09 11° E
Ariane Rocket 3.0 18:27:35 10° SSE 18:32:38 81° ENE 18:37:43 10° NNW
STARLINK-1187 3.8 18:29:44 10° NW 18:32:45 39° NNE 18:35:33 11° E
STARLINK-1199 3.9 18:30:39 10° NW 18:33:36 36° NNE 18:36:21 11° E
STARLINK-1191 3.9 18:31:05 10° NW 18:34:02 36° NNE 18:36:47 11° E
Cosmos 1943 Rocket 4.2 18:29:18 10° NW 18:34:03 30° WSW 18:38:49 10° SSW
STARLINK-1210 3.9 18:31:33 10° NW 18:34:30 36° NNE 18:37:13 12° E
STARLINK-1221 3.9 18:31:59 10° NW 18:34:57 37° NNE 18:37:40 12° E
STARLINK-1219 3.9 18:32:27 10° NW 18:35:25 37° NNE 18:38:06 12° E
STARLINK-1222 3.9 18:32:53 10° NW 18:35:51 37° NNE 18:38:31 12° E
STARLINK-1211 3.8 18:33:21 10° NW 18:36:19 37° NNE 18:38:58 12° E
STARLINK-1214 3.8 18:33:48 10° NW 18:36:46 38° NNE 18:39:24 12° E
STARLINK-1245 3.8 18:34:16 10° NW 18:37:13 38° NNE 18:39:48 12° E
STARLINK-1238 3.8 18:34:40 10° NW 18:37:40 38° NNE 18:40:15 13° E
Meteor 1-16 Rocket 4.2 18:32:20 10° S 18:37:46 88° E 18:43:24 10° N
Cosmos 614 Rocket 3.9 18:32:59 10° SSW 18:38:11 76° ESE 18:43:25 10° NNE
CZ-2C R/B 2.8 18:33:25 10° SSE 18:38:14 71° ENE 18:42:59 10° N
ERBS 4.3 18:36:02 10° NNW 18:38:34 19° NNE 18:41:04 10° ENE
STARLINK-1205 3.8 18:35:37 10° NW 18:38:35 38° NNE 18:41:07 13° E
STARLINK-1204 3.8 18:36:04 10° NW 18:39:02 38° NNE 18:41:33 13° E
APEX 4.2 18:32:57 10° NNW 18:39:26 78° ENE 18:44:37 10° SSE
MONITOR-E 3.7 18:39:06 10° SSE 18:41:41 65° ENE 18:44:19 10° N
STARLINK-29 2.8 18:39:52 10° SW 18:43:02 75° SSE 18:46:15 10° ENE
Cosmos 1190 Rocket 4.0 18:39:02 10° S 18:44:14 60° ESE 18:49:27 10° NNE
SJ-6B 3.0 18:40:43 10° SSE 18:44:47 62° ENE 18:48:52 10° N
Resurs 1-3 4.4 18:41:31 11° SE 18:45:16 33° ENE 18:49:12 10° N
Aureole 1 Rocket 4.1 18:37:52 10° SSW 18:45:21 77° ESE 18:51:10 10° NNE
Cosmos 1300 3.8 18:43:25 10° SE 18:46:30 24° E 18:49:37 10° NE
BREEZE-M DEB (TANK) 3.7 18:41:51 10° WNW 18:48:36 73° NNE 18:50:46 17° ESE
STARLINK-60 3.9 18:47:32 10° WSW 18:50:43 48° NNW 18:53:55 10° NE
Cosmos 2369 Rocket 4.1 18:46:31 10° NW 18:51:20 29° WSW 18:56:06 10° SSW
SL-24 R/B 4.1 18:48:46 10° NNE 18:52:32 42° E 18:56:02 10° S
CZ-2C R/B 3.9 18:50:52 10° NNE 18:55:26 50° E 18:59:53 10° S
Cosmos 2058 Rocket 3.1 18:54:22 10° S 18:58:50 66° E 19:03:18 10° NNE
Cosmos 1726 Rocket 3.8 18:57:06 10° SSW 19:01:30 75° W 19:05:59 10° N
SL-08 RB Rocket 3.7 18:57:13 10° SSE 19:01:46 80° ENE 19:06:25 10° N
STARLINK-1228 2.6 19:01:15 10° WNW 19:04:12 85° NNE 19:05:31 29° ESE
Cosmos 1461 3.2 18:59:39 10° NW 19:04:13 79° WSW 19:08:01 15° SSE
Cosmos 1726 4.4 19:03:04 10° SW 19:06:20 28° WNW 19:09:37 10° NNW
Cosmos 921 Rocket 2.9 19:02:21 10° NNW 19:06:32 71° ENE 19:09:43 17° SSE
DMSP B5D2-2 4.2 19:01:32 10° NNE 19:06:37 50° E 19:11:41 10° S
Cosmos 1703 4.1 19:02:55 10° NNW 19:06:47 52° W 19:10:38 10° S
SL-4 R/B 3.0 19:04:16 10° W 19:07:25 34° NNW 19:10:37 10° NE
Cosmos 2341 Rocket 4.2 19:01:21 10° N 19:07:39 56° ENE 19:13:22 13° SSE
Cosmos 407 Rocket 3.8 19:04:44 10° SSW 19:09:51 71° WNW 19:15:00 10° NNE
Cosmos 1908 4.0 19:06:12 10° SSW 19:09:58 54° W 19:13:49 10° N
Cosmos 1340 Rocket 2.8 19:06:22 10° S 19:10:25 86° W 19:14:28 10° N
CZ-4C R/B 4.4 19:05:16 10° NNW 19:10:30 23° NNE 19:16:21 10° ENE
FREGAT/IRIS 4.1 19:08:13 10° SSW 19:10:42 32° W 19:13:12 10° NNW
STARLINK-1246 4.4 19:07:53 10° NW 19:11:52 42° NNE 19:14:15 21° E
Cosmos 2228 4.1 19:08:19 10° SSW 19:12:28 47° WNW 19:16:42 10° N
RESURS DK-1 4.4 19:10:38 10° N 19:13:01 15° NE 19:14:21 13° ENE
STARLINK-1201 3.1 19:10:01 10° NW 19:13:16 66° NNE 19:14:33 33° ESE
Cosmos 676 Rocket 4.0 19:08:13 10° S 19:13:26 65° ESE 19:18:38 10° NNE
COSMOS 2406 4.3 19:13:01 21° ESE 19:13:42 22° E 19:17:56 10° NE
STARLINK-1224 4.3 19:12:54 10° NW 19:16:53 44° NNE 19:19:04 23° E
ATLAS 5 CENTAUR R/B 4.5 19:13:28 10° S 19:17:55 14° SSE 19:18:54 14° SE
MetOp-A 4.1 19:13:31 11° SSE 19:18:40 83° ENE 19:24:03 10° NNW
Cosmos 2218 Rocket 4.4 19:12:54 10° N 19:18:47 42° ENE 19:22:17 23° SE
STARLINK-1203 4.2 19:15:02 10° NW 19:19:07 48° NNE 19:21:13 25° E
Resurs 01 Rocket 1.8 19:17:44 25° SE 19:20:05 52° ENE 19:24:24 10° N
Cosmos 2058 3.8 19:16:48 10° NNE 19:20:25 29° ENE 19:21:10 27° E
STARLINK-1225 4.3 19:17:53 10° NW 19:21:54 47° NNE 19:23:51 26° E
MOS 1 Rocket 3.6 19:17:49 10° NNE 19:23:14 66° E 19:28:38 10° S
STARLINK-52 3.5 19:20:18 10° WSW 19:23:27 57° NNW 19:25:57 15° NE
CZ-2C R/B 2.5 19:19:23 10° NNE 19:24:32 61° E 19:29:42 10° S
BREEZE M DEB (TANK) 2.8 19:22:51 10° SW 19:25:52 57° SE 19:33:56 10° ENE
Cosmos 1812 Rocket 4.1 19:25:20 31° ESE 19:26:22 36° E 19:30:20 10° NNE
STARLINK-1230 4.2 19:22:50 10° NW 19:26:53 49° NNE 19:28:37 29° E
SPOT 3 Rocket 3.7 19:22:44 11° S 19:27:46 78° WSW 19:33:00 10° NNW
Cosmos 962 Rocket 4.4 19:22:20 10° N 19:28:31 86° E 19:34:09 13° S
ARGOS 4.2 19:24:12 10° S 19:29:21 46° W 19:34:31 10° NNW
Cosmos 1697 Rocket 4.2 19:26:13 10° N 19:30:37 22° NE 19:32:44 18° ENE
SL-8 Rocket 4.1 19:24:53 10° N 19:31:10 62° ENE 19:35:13 23° SSE
FALCON 9 DEB 3.9 19:28:24 10° WSW 19:31:50 52° NNW 19:34:33 15° NE
STARLINK-1243 4.1 19:27:48 10° NW 19:31:52 52° NNE 19:33:24 33° E
Iridium 2 3.8 19:33:27 43° SE 19:34:08 50° E 19:37:51 10° NNE
Cosmos 2181 Rocket 3.9 19:28:46 10° S 19:34:55 63° E 19:41:01 10° NNE
USA 186 4.4 19:32:36 10° SW 19:35:02 19° W 19:37:24 10° NW
Cosmos 1954 Rocket 4.0 19:29:48 10° SSW 19:35:03 87° WNW 19:40:18 10° NNE
STARLINK-1236 4.0 19:32:46 10° NW 19:36:52 55° NNE 19:38:11 37° E
STARLINK-67 4.4 19:37:30 10° W 19:39:24 21° SW 19:39:24 21° SW
Cosmos 1741 Rocket 4.3 19:41:05 31° SSE 19:43:03 44° ESE 19:48:06 10° NNE
Meteor 2-1 Rocket 4.5 19:41:06 27° SSE 19:44:04 51° E 19:49:49 10° NNE
Cosmos 2366 rocket 4.0 19:39:12 10° N 19:45:18 63° E 19:48:11 32° SSE
Cosmos 1076 Rocket 3.6 19:41:23 10° N 19:45:37 56° ENE 19:46:20 49° ESE
BREEZE-M DEB (TANK) 4.1 19:42:10 10° SW 19:45:56 33° S 19:45:56 33° S
STARLINK-1269 3.8 19:42:43 10° NW 19:46:51 63° NNE 19:47:44 48° E
Landsat 7 4.4 19:46:17 36° E 19:47:01 38° ENE 19:51:24 10° N
Cosmos 1959 Rocket 4.4 19:43:15 10° N 19:49:33 70° E 19:52:35 32° SSE
Cosmos 1656 4.1 19:44:18 10° NNW 19:49:47 46° ENE 19:51:23 37° E
Cosmos 1763 Rocket 3.8 19:45:17 10° NNW 19:50:20 49° ENE 19:51:29 41° ESE
SPOT 1/Viking Rocket 4.2 19:50:06 35° E 19:51:06 39° ENE 19:55:55 10° N
STARLINK-1200 3.7 19:47:41 10° NW 19:51:50 67° NNE 19:52:31 55° E
Cosmos 1455 4.1 19:56:32 19° NE 19:56:32 19° NE 19:57:58 10° NNE
STARLINK-1234 4.2 19:53:19 10° WNW 19:55:47 32° WSW 19:55:47 32° WSW
STARLINK-1209 4.4 19:53:49 10° WNW 19:56:15 30° WSW 19:56:15 30° WSW
STARLINK-1192 3.6 19:52:39 10° NW 19:56:49 72° NNE 19:57:18 63° E
STARLINK-1233 3.9 19:54:04 10° WNW 19:56:38 41° WSW 19:56:38 41° WSW
STARLINK-1212 3.9 19:54:33 10° WNW 19:57:04 40° WSW 19:57:04 40° WSW
STARLINK-1105 3.9 19:54:58 10° WNW 19:57:31 40° WSW 19:57:31 40° WSW
STARLINK-1206 4.0 19:55:28 10° WNW 19:57:55 39° WSW 19:57:55 39° WSW
STARLINK-1247 4.0 19:55:56 10° WNW 19:58:22 38° WSW 19:58:22 38° WSW
Iridium 4 Rocket 2.9 19:54:53 10° N 19:59:02 62° E 19:59:06 62° E
STARLINK-1227 4.0 19:56:19 10° WNW 19:58:47 38° WSW 19:58:47 38° WSW
STARLINK-1218 4.1 19:56:50 10° WNW 19:59:13 37° WSW 19:59:13 37° WSW
USA 234 3.3 19:53:31 10° ENE 19:59:50 49° SE 20:06:07 10° SSW
Dummy Sat-02 4.5 19:59:55 85° SE 19:59:59 87° E 20:03:46 10° N
STARLINK-1226 4.1 19:57:16 10° WNW 19:59:40 37° WSW 19:59:40 37° WSW
STARLINK-1254 4.1 19:57:42 10° WNW 20:00:06 37° WSW 20:00:06 37° WSW
Cosmos 1980 Rocket 3.7 19:56:31 10° N 20:00:47 21° NE 20:02:02 20° ENE
STARLINK-1215 4.2 19:58:11 10° WNW 20:00:32 35° WSW 20:00:32 35° WSW
STARLINK-1231 4.2 19:58:39 10° WNW 20:00:58 35° WSW 20:00:58 35° WSW
Cosmos 1174 4.1 19:57:25 10° NNW 20:01:41 82° NE 20:02:39 58° SE
STARLINK-1244 3.5 19:57:44 10° NW 20:01:54 77° NNE 20:02:10 72° ENE
Cosmos 1892 2.8 19:58:37 10° N 20:02:13 63° NE 20:02:13 63° NE
STARLINK-1232 4.2 19:59:34 10° WNW 20:01:50 34° WSW 20:01:50 34° WSW
STARLINK-1217 4.3 20:00:01 10° WNW 20:02:16 34° WSW 20:02:16 34° WSW
H-2A R/B 4.5 19:59:36 10° SW 20:03:09 19° W 20:06:41 10° NW
Abrixas rocket 3.8 20:00:22 10° W 20:02:07 27° WSW 20:02:07 27° WSW
STARLINK-1208 4.3 20:00:26 10° WNW 20:02:43 34° WSW 20:02:43 34° WSW
STARLINK-1229 4.3 20:00:54 10° WNW 20:03:07 33° WSW 20:03:07 33° WSW
STARLINK-1271 4.4 20:01:22 10° WNW 20:03:34 32° WSW 20:03:34 32° WSW
STARLINK-1270 4.4 20:01:50 10° WNW 20:04:00 32° WSW 20:04:00 32° WSW
STARLINK-1154 4.4 20:02:17 10° WNW 20:04:26 31° WSW 20:04:26 31° WSW
ATLAS 5 CENTAUR R/B 3.6 20:01:43 10° W 20:05:27 29° NW 20:09:38 10° NNE
STARLINK-1197 4.5 20:03:11 10° WNW 20:05:18 30° WSW 20:05:18 30° WSW
STARLINK-1189 4.5 20:03:38 10° WNW 20:05:43 30° WSW 20:05:43 30° WSW
STARLINK-1138 3.5 20:02:37 10° WNW 20:06:48 82° NE 20:06:52 82° ENE
Cosmos 1825 3.9 20:03:43 10° NNE 20:05:39 22° NE 20:05:39 22° NE
Cosmos-2242 4.1 20:08:41 31° NE 20:08:41 31° NE 20:11:24 10° NNE
ATLAS 2AS CENTAUR R/B 4.3 20:01:26 10° NW 20:07:34 29° WSW 20:13:00 11° SSW
COSMOS 2455 3.8 20:05:14 10° NW 20:10:51 42° WSW 20:13:57 24° SSW
STARLINK-1143 3.5 20:07:35 10° WNW 20:11:39 85° NW 20:11:39 85° NW
Cosmos 1356 Rocket 4.3 20:13:46 38° NE 20:13:46 38° NE 20:16:38 10° NNE
ERBS 3.3 20:11:52 10° NW 20:14:20 45° NW 20:14:20 45° NW
STARLINK-1241 3.7 20:12:37 10° WNW 20:16:28 76° WNW 20:16:28 76° WNW
IGS 5A 3.6 20:20:27 65° NNE 20:20:27 65° NNE 20:24:07 10° N
SAR-Lupe-2 4.3 20:17:53 10° N 20:21:14 52° WNW 20:21:14 52° WNW
STARLINK-1239 3.8 20:17:35 10° WNW 20:21:14 66° W 20:21:14 66° W
ATLAS CENTAUR R/B 2.8 20:19:32 10° NNW 20:22:10 26° NNE 20:22:10 26° NNE
Spot 2 Rocket 3.5 20:22:15 56° S 20:23:16 76° WSW 20:28:24 10° NNW
Cosmos 1821 Rocket 4.2 20:19:43 10° N 20:26:00 54° ENE 20:26:40 52° E
USA 32 3.9 20:21:04 10° N 20:26:18 70° E 20:26:23 70° E
STARLINK-1240 4.1 20:22:34 10° WNW 20:26:01 58° W 20:26:01 58° W
Cosmos 1850 Rocket 4.0 20:24:22 29° SSW 20:27:00 76° WNW 20:32:13 10° NNE
Terra 2.8 20:29:53 36° NE 20:29:53 36° NE 20:33:31 10° N
Cosmos 841 Rocket 3.6 20:24:20 10° NNW 20:29:32 60° ENE 20:29:32 60° ENE
SPOT 5 3.4 20:31:40 41° NNE 20:31:40 41° NNE 20:34:52 10° N
Cosmos 2082 Rocket 3.9 20:34:09 20° NE 20:34:09 20° NE 20:36:07 10° NE
STARLINK-1216 4.3 20:27:32 10° WNW 20:30:47 51° W 20:30:47 51° W
Cosmos 2278 4.3 20:26:57 10° NNW 20:32:17 40° NE 20:32:29 40° ENE
Meteor 2-10 Rocket 3.4 20:33:52 75° ENE 20:33:52 75° ENE 20:39:08 10° NNE
SL-08 R/B 4.4 20:29:07 10° N 20:35:17 82° W 20:36:45 55° S
Cosmos 1833 Rocket 3.2 20:39:02 45° ENE 20:39:02 45° ENE 20:43:07 10° NNE
CARTOSAT-1 4.3 20:39:31 47° NNE 20:39:31 47° NNE 20:42:44 10° N
Cosmos 468 Rocket 4.5 20:37:00 10° NNW 20:41:58 49° WSW 20:42:31 47° SW
ERS-1 Rocket 3.0 20:47:01 77° NNW 20:47:01 77° NNW 20:51:42 10° NNW
SL-4 R/B 3.9 20:44:35 10° NW 20:46:33 23° NNW 20:46:33 23° NNW
Cosmos 1408 4.4 20:44:49 10° NNW 20:46:55 31° NNW 20:46:55 31° NNW
RESURS DK-1 3.5 20:47:25 10° NNW 20:50:15 42° NW 20:50:15 42° NW
Cosmos 1766 Rocket 4.4 20:49:37 10° N 20:52:50 47° N 20:52:50 47° N
BREEZE M DEB (TANK) 4.2 20:49:06 10° W 20:53:25 37° NW 20:53:25 37° NW
Cosmos 1570 Rocket 4.2 20:49:25 10° NNW 20:54:32 69° W 20:54:32 69° W
Okean 3 Rocket 4.4 20:51:13 10° NNW 20:54:34 49° NNW 20:54:34 49° NNW
Resurs 01 Rocket 4.0 20:55:17 14° WSW 20:56:53 16° W 20:59:41 10° NW
COSMOS 2406 3.6 20:54:52 31° SW 20:57:30 60° WNW 21:03:11 10° NNE
CZ-4C R/B 3.1 20:53:24 10° NNW 21:00:27 61° NE 21:01:49 54° E
Cosmos 1697 Rocket 3.0 21:09:30 10° NNW 21:14:29 63° WNW 21:14:29 63° WNW
Cosmos 2369 4.0 21:09:38 10° NNW 21:14:33 64° WNW 21:14:33 64° WNW
SL-16 R/B 3.5 21:31:59 10° N 21:36:11 32° NNE 21:36:11 32° NNE
Cosmos 2360 Rocket 4.2 21:33:38 10° N 21:37:25 18° NE 21:37:32 18° NE
USA 234 3.6 21:36:31 10° NE 21:42:56 60° NNW 21:49:21 10° WSW
Cosmos 2322 Rocket 3.6 21:39:02 10° N 21:43:04 30° NNE 21:43:04 30° NNE
Cosmos 1980 Rocket 3.0 21:39:45 10° NNW 21:43:48 48° NW 21:43:48 48° NW
Terra 4.0 22:08:45 20° WNW 22:08:45 20° WNW 22:10:54 10° NW
Mayak 1.4 22:03:47 10° N 22:04:58 18° N 22:04:58 18° N
Cosmos 2082 Rocket 3.4 22:15:56 38° NW 22:15:56 38° NW 22:20:25 10° NNE
Cosmos 2219 Rocket 4.3 22:30:46 10° N 22:34:33 18° NE 22:34:42 18° NE
Cosmos 2344 4.5 22:27:39 10° NW 22:37:31 68° WSW 22:38:34 66° SSW
CZ-4C R/B 4.0 22:42:13 10° NW 22:47:00 34° W 22:47:00 34° W
COSMOS 2428 4.5 22:59:30 10° N 23:03:37 26° NE 23:03:37 26° NE
SL-16 R/B 4.2 23:16:02 10° NW 23:18:03 21° NW 23:18:03 21° NW
Cosmos 2360 Rocket 3.8 23:16:35 10° NNW 23:19:17 30° NNW 23:19:17 30° NNW
Cosmos 2322 Rocket 4.2 23:22:56 10° NW 23:24:52 21° NW 23:24:52 21° NW
Cosmos 2333 Rocket 3.6 23:39:03 10° NNW 23:42:25 34° N 23:42:25 34° N
Cosmos 2237 Rocket 4.1 23:40:58 10° N 23:45:25 23° NE 23:46:25 22° ENE
SL-16 R/B 3.8 23:48:42 33° ENE 23:48:59 33° ENE 23:54:26 10° N
